When you browse on this site, cookies collect data to enhance your experience and personalize the content and advertising you see.
Visit our Privacy Policy to learn more. By continuing to use the site, you agree to this use of cookies and data.
  • In Romania
  • List of Countries
  • For 7 days
  • Water Temperature
  • Satellite Maps
  • Weather Map
  • Weather Widgets
  • user-avatar
    Login

    Hourly Weather Encamp

    Today, 24 June, Monday

    Time Temperature Precipitation Wind Pressure Humidity
    00:00 +15°C° 0 mm 2 mps 625 mmHg 66%
    01:00 +15°C° 0 mm 2 mps 625 mmHg 68%
    02:00 +14°C° 0 mm 2 mps 625 mmHg 70%
    03:00 +14°C° 0 mm 2 mps 624 mmHg 72%
    04:00 +15°C° 0 mm 2 mps 625 mmHg 70%
    05:00 +16°C° 0 mm 2 mps 625 mmHg 67%
    06:00 +16°C° 0 mm 2 mps 625 mmHg 65%
    07:00 +18°C° 0 mm 2 mps 626 mmHg 55%
    08:00 +20°C° 0 mm 2 mps 627 mmHg 45%
    09:00 +23°C° 0 mm 2 mps 628 mmHg 35%
    10:00 +24°C° 0 mm 2 mps 629 mmHg 33%
    11:00 +25°C° 0 mm 2 mps 629 mmHg 32%
    12:00 +26°C° 0 mm 2 mps 629 mmHg 30%
    13:00 +26°C° 0 mm 2 mps 629 mmHg 31%
    14:00 +26°C° 0 mm 2 mps 629 mmHg 33%
    15:00 +26°C° 0 mm 2 mps 629 mmHg 34%
    16:00 +25°C° 0 mm 2 mps 628 mmHg 42%
    17:00 +23°C° 0 mm 2 mps 627 mmHg 49%
    18:00 +21°C° 0 mm 2 mps 626 mmHg 56%
    19:00 +19°C° 0 mm 2 mps 626 mmHg 56%
    20:00 +18°C° 0 mm 2 mps 626 mmHg 57%
    21:00 +16°C° 0 mm 2 mps 626 mmHg 57%
    22:00 +16°C° 0 mm 2 mps 626 mmHg 55%
    23:00 +16°C° 0 mm 1 mps 626 mmHg 53%

    Tomorrow, 25 June, Tuesday

    Time Temperature Precipitation Wind Pressure Humidity
    00:00 +15°C° 0 mm 1 mps 626 mmHg 51%
    01:00 +15°C° 0 mm 1 mps 626 mmHg 51%
    02:00 +15°C° 0 mm 1 mps 626 mmHg 52%
    03:00 +15°C° 0 mm 1 mps 626 mmHg 52%
    04:00 +16°C° 0 mm 1 mps 626 mmHg 53%
    05:00 +18°C° 0 mm 1 mps 627 mmHg 54%
    06:00 +19°C° 0 mm 1 mps 627 mmHg 55%
    07:00 +21°C° 0 mm 1 mps 628 mmHg 49%
    08:00 +23°C° 0 mm 2 mps 629 mmHg 43%
    09:00 +25°C° 0 mm 2 mps 630 mmHg 37%
    10:00 +26°C° 0 mm 2 mps 631 mmHg 34%
    11:00 +27°C° 0 mm 2 mps 631 mmHg 31%
    12:00 +29°C° 0 mm 2 mps 631 mmHg 28%
    13:00 +29°C° 0 mm 2 mps 631 mmHg 29%
    14:00 +29°C° 0 mm 2 mps 631 mmHg 29%
    15:00 +29°C° 0 mm 2 mps 631 mmHg 30%
    16:00 +28°C° 0 mm 1 mps 631 mmHg 38%
    17:00 +26°C° 0 mm 1 mps 630 mmHg 45%
    18:00 +25°C° 0 mm 1 mps 630 mmHg 53%
    19:00 +23°C° 0 mm 1 mps 630 mmHg 53%
    20:00 +22°C° 0 mm 1 mps 629 mmHg 53%
    21:00 +19°C° 0 mm 2 mps 629 mmHg 53%
    22:00 +18°C° 0 mm 2 mps 629 mmHg 49%
    23:00 +18°C° 0 mm 2 mps 629 mmHg 45%

    Day after tomorrow, 26 June, Wednesday

    Time Temperature Precipitation Wind Pressure Humidity
    00:00 +18°C° 0 mm 2 mps 629 mmHg 40%
    01:00 +17°C° 0 mm 2 mps 628 mmHg 41%
    02:00 +17°C° 0 mm 2 mps 628 mmHg 41%
    03:00 +17°C° 0 mm 2 mps 628 mmHg 41%
    04:00 +17°C° 0 mm 2 mps 629 mmHg 42%
    05:00 +18°C° 0 mm 2 mps 629 mmHg 42%
    06:00 +19°C° 0 mm 2 mps 629 mmHg 42%
    07:00 +23°C° 0 mm 2 mps 630 mmHg 35%
    08:00 +26°C° 0 mm 2 mps 631 mmHg 28%
    09:00 +29°C° 0 mm 3 mps 633 mmHg 21%
    10:00 +30°C° 0 mm 3 mps 633 mmHg 20%
    11:00 +31°C° 0 mm 3 mps 633 mmHg 19%
    12:00 +33°C° 0 mm 4 mps 633 mmHg 18%
    13:00 +33°C° 0 mm 4 mps 633 mmHg 19%
    14:00 +31°C° 0 mm 3 mps 633 mmHg 20%
    15:00 +31°C° 0 mm 3 mps 632 mmHg 21%
    16:00 +30°C° 0 mm 3 mps 632 mmHg 28%
    17:00 +28°C° 0 mm 2 mps 631 mmHg 35%
    18:00 +26°C° 0 mm 2 mps 631 mmHg 43%
    19:00 +24°C° 0 mm 2 mps 630 mmHg 43%
    20:00 +21°C° 0 mm 2 mps 630 mmHg 43%
    21:00 +19°C° 0 mm 2 mps 629 mmHg 43%
    22:00 +19°C° 0 mm 2 mps 629 mmHg 39%
    23:00 +19°C° 0 mm 2 mps 629 mmHg 35%

    27 June, Thursday

    Time Temperature Precipitation Wind Pressure Humidity
    00:00 +19°C° 0 mm 2 mps 629 mmHg 31%
    01:00 +19°C° 0 mm 2 mps 629 mmHg 29%
    02:00 +19°C° 0 mm 2 mps 629 mmHg 28%
    03:00 +19°C° 0 mm 2 mps 629 mmHg 27%
    04:00 +20°C° 0 mm 2 mps 629 mmHg 31%
    05:00 +20°C° 0 mm 2 mps 629 mmHg 34%
    06:00 +22°C° 0 mm 1 mps 630 mmHg 38%
    07:00 +24°C° 0 mm 1 mps 631 mmHg 33%
    08:00 +27°C° 0 mm 1 mps 632 mmHg 28%
    09:00 +30°C° 0 mm 1 mps 633 mmHg 23%
    10:00 +31°C° 0 mm 2 mps 633 mmHg 22%
    11:00 +32°C° 0 mm 2 mps 633 mmHg 20%
    12:00 +34°C° 0 mm 2 mps 633 mmHg 18%
    13:00 +32°C° 0 mm 2 mps 633 mmHg 19%
    14:00 +32°C° 0 mm 1 mps 633 mmHg 20%
    15:00 +32°C° 0 mm 1 mps 632 mmHg 21%
    16:00 +31°C° 0 mm 1 mps 632 mmHg 28%
    17:00 +29°C° 0 mm 1 mps 631 mmHg 36%
    18:00 +28°C° 0 mm 1 mps 630 mmHg 43%
    19:00 +26°C° 0 mm 1 mps 630 mmHg 41%
    20:00 +24°C° 0 mm 1 mps 629 mmHg 39%
    21:00 +22°C° 0 mm 1 mps 629 mmHg 37%
    22:00 +20°C° 0 mm 2 mps 629 mmHg 34%
    23:00 +20°C° 0 mm 2 mps 628 mmHg 31%

    28 June, Friday

    Time Temperature Precipitation Wind Pressure Humidity
    00:00 +20°C° 0 mm 2 mps 628 mmHg 28%
    01:00 +20°C° 0 mm 2 mps 628 mmHg 26%
    02:00 +19°C° 0 mm 2 mps 628 mmHg 23%
    03:00 +19°C° 0 mm 2 mps 627 mmHg 21%
    04:00 +20°C° 0 mm 2 mps 628 mmHg 24%
    05:00 +20°C° 0 mm 2 mps 628 mmHg 27%
    06:00 +21°C° 0 mm 2 mps 628 mmHg 30%
    07:00 +25°C° 0 mm 1 mps 629 mmHg 26%
    08:00 +28°C° 0 mm 1 mps 630 mmHg 22%
    09:00 +31°C° 0 mm 1 mps 631 mmHg 19%
    10:00 +31°C° 0 mm 1 mps 631 mmHg 18%
    11:00 +32°C° 0 mm 1 mps 631 mmHg 18%
    12:00 +32°C° 0 mm 2 mps 631 mmHg 17%
    13:00 +32°C° 0 mm 2 mps 631 mmHg 19%
    14:00 +32°C° 0 mm 2 mps 631 mmHg 20%
    15:00 +31°C° 0 mm 2 mps 630 mmHg 21%
    16:00 +30°C° 0 mm 1 mps 630 mmHg 29%
    17:00 +28°C° 0 mm 1 mps 629 mmHg 38%
    18:00 +27°C° 0 mm 1 mps 628 mmHg 46%
    19:00 +25°C° 0 mm 1 mps 628 mmHg 47%
    20:00 +23°C° 0 mm 1 mps 627 mmHg 49%
    21:00 +21°C° 0 mm 1 mps 627 mmHg 50%
    22:00 +20°C° 0 mm 1 mps 627 mmHg 47%
    23:00 +20°C° 0 mm 1 mps 627 mmHg 44%

    29 June, Saturday

    Time Temperature Precipitation Wind Pressure Humidity
    00:00 +20°C° 0 mm 1 mps 626 mmHg 41%
    01:00 +20°C° 0 mm 1 mps 626 mmHg 40%
    02:00 +20°C° 0 mm 1 mps 626 mmHg 39%
    03:00 +19°C° 0 mm 1 mps 626 mmHg 38%
    04:00 +20°C° 0 mm 1 mps 626 mmHg 41%
    05:00 +21°C° 0 mm 1 mps 627 mmHg 43%
    06:00 +22°C° 0 mm 1 mps 627 mmHg 46%
    07:00 +24°C° 0 mm 1 mps 628 mmHg 39%
    08:00 +27°C° 0 mm 1 mps 629 mmHg 32%
    09:00 +29°C° 0 mm 1 mps 630 mmHg 26%
    10:00 +30°C° 0 mm 1 mps 630 mmHg 25%
    11:00 +31°C° 0 mm 2 mps 631 mmHg 24%
    12:00 +32°C° 0 mm 2 mps 631 mmHg 23%
    13:00 +31°C° 0 mm 2 mps 630 mmHg 25%
    14:00 +30°C° 0 mm 2 mps 630 mmHg 27%
    15:00 +30°C° 0 mm 2 mps 629 mmHg 30%
    16:00 +28°C° 0 mm 2 mps 629 mmHg 37%
    17:00 +27°C° 0 mm 1 mps 629 mmHg 44%
    18:00 +26°C° 0 mm 1 mps 628 mmHg 51%
    19:00 +24°C° 0 mm 1 mps 628 mmHg 52%
    20:00 +22°C° 0 mm 1 mps 628 mmHg 54%
    21:00 +20°C° 0 mm 1 mps 627 mmHg 55%
    22:00 +20°C° 0 mm 1 mps 627 mmHg 52%
    23:00 +20°C° 0 mm 1 mps 627 mmHg 49%
    Show more